Location: Newark
(43.0000°N, 1.6781°W)
Time: 10:26:06
(UTC+00:00)

Explorer 7 - Pass Details

Date: 26 April 2021
Orbit: 484 x 677 km, 50.3° (Epoch: 07 May)

Event Time Altitude Azimuth Distance (km) Brightness Sun altitude
Rises 22:40:12 0° 300° (WNW) 2,727 11.1 -30.0°
Reaches altitude 10° 22:42:24 10° 303° (WNW) 1,862 10.1 -30.1°
Enters shadow 22:44:30 29° 310° (NW) 1,086 8.7 -30.3°
Maximum altitude 22:46:39 70° 27° (NNE) 632 - -30.4°
Drops below altitude 10° 22:51:10 10° 112° (ESE) 1,979 - -30.7°
Sets 22:53:34 0° 114° (ESE) 2,914 - -30.9°
